User: anonymous   Login
Location: Vancouver
(49.2500°N, 123.1330°W)
Time: 21:48:25
(UTC-07:00)
Language:

Cosmos 1408 Rocket - Orbit

View from above orbital plane
View from above orbital plane
View from above satellite
View from above satellite

Ground track
Ground track

The orbit data is extracted from the following two-line orbital elements,

1 13553U 82092B   17235.51542822 +.00000088 +00000-0 +75552-5 0  9990
2 13553 082.5709 171.3565 0021380 178.1066 303.3412 14.84130726865934
Epoch (UTC): 23 August 2017 12:22:12
Eccentricity: 0.0021380
inclination: 82.5709°
perigee height: 601 km
apogee height: 631 km
right ascension of ascending node: 171.3565°
argument of perigee: 178.1066°
revolutions per day: 14.84130726
mean anomaly at epoch: 303.3412°
orbit number at epoch: 86593

The dashed part of the orbit path shows where the satellite is in the earth's shadow,  

DLR